GW5095 Weather Reports


Display with metric or nautical units.
time (UTC)temp
F
wind
direction
speed
MPH
gust
MPH
rain 1hr
in
rain 24hr
in
rain mn
in
humidity
%
barometer
mb
20260505053209 70 135 1.0 1.0 0.00 0.00 0.00 86 1019.2
20260505052707 70 82 2.0 2.0 0.00 0.00 0.00 85 1019.2
20260505052204 70 88 1.0 1.0 0.00 0.00 0.00 85 1019.2
20260505051701 70 37 1.0 2.0 0.00 0.00 0.00 85 1019.2
20260505051159 70 130 2.0 2.0 0.00 0.00 0.00 85 1019.2
20260505050656 70 102 1.0 1.0 0.00 0.00 0.00 85 1019.2
20260505050150 71 82 1.0 1.0 0.00 0.00 0.00 84 1019.2
20260505041624 71 106 1.0 2.0 0.00 0.00 0.00 82 1019.5
20260505041122 71 133 1.0 2.0 0.00 0.00 0.00 82 1019.5
20260505040619 72 160 3.0 3.0 0.00 0.00 0.00 82 1019.5
20260505040116 72 47 2.0 2.0 0.00 0.00 0.00 81 1019.5
20260505035612 72 162 0.0 1.0 0.00 0.00 0.00 81 1019.9
20260505035108 72 131 1.0 1.0 0.00 0.00 0.00 81 1019.5
20260505034605 72 79 3.0 5.0 0.00 0.00 0.00 81 1019.5
20260505034102 72 55 1.0 2.0 0.00 0.00 0.00 80 1019.5
20260505033559 72 105 2.0 2.0 0.00 0.00 0.00 80 1019.9
20260505033057 73 101 2.0 2.0 0.00 0.00 0.00 80 1019.5
20260505032555 73 68 3.0 3.0 0.00 0.00 0.00 80 1019.5
20260505032051 73 78 2.0 2.0 0.00 0.00 0.00 79 1019.5
20260505031548 73 49 3.0 5.0 0.00 0.00 0.00 79 1019.5
20260505031044 73 78 3.0 3.0 0.00 0.00 0.00 78 1020.2
20260505030542 73 133 1.0 1.0 0.00 0.00 0.00 78 1019.9
20260505030037 74 112 4.0 5.0 0.00 0.00 0.00 78 1019.9
20260505025533 74 44 3.0 3.0 0.00 0.00 0.00 78 1019.9
20260505025033 74 64 2.0 3.0 0.00 0.00 0.00 77 1019.9
20260505024529 74 146 0.0 2.0 0.00 0.00 0.00 77 1019.9
20260505024026 74 102 3.0 5.0 0.00 0.00 0.00 76 1019.2
20260505023523 74 113 1.0 2.0 0.00 0.00 0.00 76 1019.2
20260505023021 75 139 1.0 2.0 0.00 0.00 0.00 76 1019.5
20260505022518 75 79 3.0 6.0 0.00 0.00 0.00 75 1019.5
20260505022015 75 175 3.0 6.0 0.00 0.00 0.00 75 1019.2
20260505021512 75 120 1.0 2.0 0.00 0.00 0.00 75 1019.5
20260505021008 75 72 4.0 6.0 0.00 0.00 0.00 74 1019.5
20260505020503 75 94 2.0 2.0 0.00 0.00 0.00 74 1019.5
20260505015959 75 86 3.0 3.0 0.00 0.00 0.00 74 1019.2
20260505015457 75 86 4.0 6.0 0.00 0.00 0.00 74 1019.5
20260505014954 76 73 3.0 5.0 0.00 0.00 0.00 73 1019.2
20260505014451 76 91 1.0 1.0 0.00 0.00 0.00 73 1019.2
20260505013948 76 68 4.0 7.0 0.00 0.00 0.00 73 1019.2
20260505013445 76 75 4.0 5.0 0.00 0.00 0.00 72 1018.8
20260505012942 76 138 3.0 3.0 0.00 0.00 0.00 72 1018.8
20260505012441 76 47 3.0 3.0 0.00 0.00 0.00 72 1018.8
20260505011937 77 112 3.0 5.0 0.00 0.00 0.00 71 1018.8
20260505011433 77 129 3.0 5.0 0.00 0.00 0.00 71 1018.8
20260505010930 77 114 3.0 5.0 0.00 0.00 0.00 71 1018.8
20260505010426 77 76 4.0 5.0 0.00 0.00 0.00 70 1018.5
20260505005922 78 80 5.0 7.0 0.00 0.00 0.00 69 1018.5
20260505005419 78 137 3.0 5.0 0.00 0.00 0.00 69 1018.5
20260505004917 78 202 3.0 6.0 0.00 0.00 0.00 68 1018.5
20260505004413 78 82 3.0 3.0 0.00 0.00 0.00 68 1018.5
20260505003910 78 107 4.0 6.0 0.00 0.00 0.00 67 1018.5
20260505003407 79 134 5.0 7.0 0.00 0.00 0.00 67 1018.2
20260505002903 79 333 2.0 2.0 0.00 0.00 0.00 66 1018.2
20260505002400 79 86 6.0 7.0 0.00 0.00 0.00 65 1017.8
20260505001858 79 54 3.0 3.0 0.00 0.00 0.00 65 1018.2
20260505001355 80 62 2.0 2.0 0.00 0.00 0.00 65 1018.2
20260505000853 80 105 1.0 2.0 0.00 0.00 0.00 65 1017.8
20260505000351 80 67 3.0 5.0 0.00 0.00 0.00 64 1017.5
20260504235847 80 88 1.0 1.0 0.00 0.00 0.00 64 1017.8
20260504235344 80 73 4.0 5.0 0.00 0.00 0.00 63 1017.5
20260504234840 80 100 5.0 6.0 0.00 0.00 0.00 63 1017.5
20260504234338 80 149 3.0 3.0 0.00 0.00 0.00 62 1017.5
20260504233834 81 81 3.0 5.0 0.00 0.00 0.00 61 1017.5
20260504233330 81 139 2.0 2.0 0.00 0.00 0.00 61 1017.5
20260504232827 81 85 5.0 7.0 0.00 0.00 0.00 61 1017.5
20260504232324 81 70 3.0 5.0 0.00 0.00 0.00 60 1017.1
20260504231821 82 81 3.0 3.0 0.00 0.00 0.00 59 1017.1
20260504231318 82 72 4.0 7.0 0.00 0.00 0.00 58 1017.1
20260504230814 82 100 2.0 5.0 0.00 0.00 0.00 58 1017.1
20260504230312 82 85 4.0 6.0 0.00 0.00 0.00 58 1017.1
20260504225810 82 140 1.0 2.0 0.00 0.00 0.00 57 1016.8
20260504225306 82 103 3.0 3.0 0.00 0.00 0.00 56 1017.1
20260504224803 83 91 5.0 6.0 0.00 0.00 0.00 55 1016.8
20260504224300 83 120 5.0 6.0 0.00 0.00 0.00 54 1017.1
20260504223757 83 113 6.0 9.0 0.00 0.00 0.00 55 1017.1
20260504223252 84 45 6.0 8.0 0.00 0.00 0.00 54 1017.1
20260504222749 84 149 4.0 7.0 0.00 0.00 0.00 54 1017.1
20260504222246 85 35 4.0 5.0 0.00 0.00 0.00 53 1016.8
20260504221744 85 40 3.0 3.0 0.00 0.00 0.00 52 1016.8
20260504221241 85 43 3.0 5.0 0.00 0.00 0.00 51 1017.1
20260504220737 84 107 1.0 2.0 0.00 0.00 0.00 53 1017.1
20260504220235 84 159 2.0 5.0 0.00 0.00 0.00 52 1017.1
20260504215732 85 3 4.0 7.0 0.00 0.00 0.00 52 1017.1
20260504215228 85 147 1.0 2.0 0.00 0.00 0.00 51 1017.1
20260504214725 85 35 3.0 3.0 0.00 0.00 0.00 51 1017.1
20260504214221 84 68 3.0 6.0 0.00 0.00 0.00 50 1017.1
20260504213718 85 33 5.0 10.0 0.00 0.00 0.00 51 1017.1
20260504213214 85 149 3.0 5.0 0.00 0.00 0.00 52 1017.1
20260504212711 84 79 3.0 5.0 0.00 0.00 0.00 51 1017.1
20260504212208 86 182 4.0 5.0 0.00 0.00 0.00 51 1017.1
20260504211705 85 68 3.0 5.0 0.00 0.00 0.00 51 1017.1
20260504211201 85 192 1.0 3.0 0.00 0.00 0.00 52 1017.1
20260504210659 84 202 2.0 2.0 0.00 0.00 0.00 51 1017.5
20260504210156 84 32 5.0 6.0 0.00 0.00 0.00 52 1017.5
20260504205653 85 56 5.0 7.0 0.00 0.00 0.00 51 1017.5
20260504205150 85 38 2.0 3.0 0.00 0.00 0.00 50 1017.5
20260504204649 84 143 5.0 6.0 0.00 0.00 0.00 50 1017.5
20260504204147 85 89 3.0 5.0 0.00 0.00 0.00 51 1017.1
20260504203645 85 75 4.0 5.0 0.00 0.00 0.00 49 1017.5
20260504203143 84 35 8.0 9.0 0.00 0.00 0.00 49 1017.5
20260504202642 84 208 5.0 8.0 0.00 0.00 0.00 51 1017.5
20260504202140 84 207 2.0 3.0 0.00 0.00 0.00 48 1017.5
20260504201636 84 169 6.0 8.0 0.00 0.00 0.00 50 1017.5
20260504201134 85 153 5.0 7.0 0.00 0.00 0.00 50 1017.5
20260504200631 85 68 4.0 6.0 0.00 0.00 0.00 49 1017.5
20260504200128 85 75 1.0 2.0 0.00 0.00 0.00 47 1017.5
20260504195623 85 80 3.0 3.0 0.00 0.00 0.00 49 1017.8
20260504195120 85 26 7.0 8.0 0.00 0.00 0.00 49 1018.2
20260504194617 85 177 4.0 6.0 0.00 0.00 0.00 51 1017.8
20260504194113 84 328 3.0 5.0 0.00 0.00 0.00 48 1017.8
20260504193609 84 73 2.0 3.0 0.00 0.00 0.00 50 1018.2
20260504193108 85 99 5.0 8.0 0.00 0.00 0.00 48 1018.2
20260504192606 86 346 3.0 3.0 0.00 0.00 0.00 48 1018.2
20260504192103 85 175 1.0 2.0 0.00 0.00 0.00 48 1018.2
20260504191601 85 86 6.0 8.0 0.00 0.00 0.00 49 1018.2
20260504191057 86 129 2.0 3.0 0.00 0.00 0.00 49 1018.2
20260504190553 84 101 2.0 3.0 0.00 0.00 0.00 49 1018.2
20260504190050 82 51 3.0 5.0 0.00 0.00 0.00 52 1018.5
20260504185547 83 51 4.0 6.0 0.00 0.00 0.00 53 1018.5
20260504185043 84 216 1.0 1.0 0.00 0.00 0.00 50 1018.8
20260504184539 86 46 5.0 8.0 0.00 0.00 0.00 48 1018.8
20260504184034 86 120 4.0 5.0 0.00 0.00 0.00 47 1019.2
20260504183532 83 32 3.0 5.0 0.00 0.00 0.00 50 1018.8
20260504183030 85 103 5.0 8.0 0.00 0.00 0.00 48 1019.2
20260504182526 84 69 3.0 3.0 0.00 0.00 0.00 50 1019.2
20260504182024 84 187 1.0 1.0 0.00 0.00 0.00 51 1019.2
20260504181521 83 54 2.0 2.0 0.00 0.00 0.00 51 1019.2
20260504181019 81 90 5.0 7.0 0.00 0.00 0.00 53 1019.9
20260504180518 82 100 1.0 1.0 0.00 0.00 0.00 52 1019.9
20260504180016 83 23 4.0 9.0 0.00 0.00 0.00 52 1019.9
20260504175513 83 34 5.0 6.0 0.00 0.00 0.00 51 1019.5
20260504175010 82 180 0.0 2.0 0.00 0.00 0.00 55 1019.2
20260504174508 82 61 6.0 8.0 0.00 0.00 0.00 52 1019.5
20260504174005 82 77 3.0 6.0 0.00 0.00 0.00 53 1019.9
20260504173501 82 62 6.0 7.0 0.00 0.00 0.00 53 1019.9
20260504172959 82 54 4.0 6.0 0.00 0.00 0.00 54 1019.9
20260504172454 82 42 5.0 6.0 0.00 0.00 0.00 51 1019.9
20260504171951 81 79 4.0 6.0 0.00 0.00 0.00 54 1019.9
20260504171448 82 59 4.0 7.0 0.00 0.00 0.00 51 1019.9
20260504170945 82 93 2.0 5.0 0.00 0.00 0.00 53 1020.2
20260504170441 81 171 4.0 5.0 0.00 0.00 0.00 52 1020.2
20260504160401 80 38 7.0 10.0 0.00 0.00 0.00 56 1020.9
20260504150825 79 48 5.0 6.0 0.00 0.00 0.00 58 1020.9
20260504150322 78 11 7.0 10.0 0.00 0.00 0.00 62 1020.9
20260504141252 76 65 3.0 3.0 0.00 0.00 0.00 68 1020.5
20260504140748 76 88 9.0 10.0 0.00 0.00 0.00 69 1020.5
20260504140244 75 96 9.0 11.0 0.00 0.00 0.00 69 1020.5
20260504130713 73 79 4.0 6.0 0.00 0.00 0.00 75 1020.2
20260504130208 72 48 3.0 3.0 0.00 0.00 0.00 76 1020.2
20260504120133 69 77 1.0 1.0 0.00 0.00 0.00 81 1020.2
20260504110600 67 13 4.0 6.0 0.00 0.00 0.00 86 1019.9
20260504100522 68 121 1.0 1.0 0.00 0.00 0.00 84 1019.2
20260504081915 68 4 4.0 7.0 0.00 0.00 0.00 86 1019.2
20260504081412 69 173 2.0 2.0 0.00 0.00 0.00 85 1019.2
20260504080908 69 7 3.0 3.0 0.00 0.00 0.00 85 1018.8
20260504080405 69 81 2.0 5.0 0.00 0.00 0.00 85 1019.2
20260504070332 68 318 3.0 3.0 0.00 0.00 0.00 87 1019.9